Omaha Offutt, NE

11:24 PM CDT on September 19, 2017 (GMT -0500)
Offutt Air Force Base

Weather History for KOFF - March, 2013

Change the Weather History Date:

Tuesday, March 5, 2013

  Actual Average Record
Temperature  
Mean Temperature 28 °F -  
Max Temperature 33 °F 38 °F 72 °F (2009)
Min Temperature 24 °F 21 °F 0 °F (2015)
Degree Days  
Heating Degree Days 36    
Moisture  
Dew Point 18 °F    
Average Humidity 65    
Maximum Humidity 74    
Minimum Humidity 59    
Precipitation  
Precipitation 0.00 in - - ()
Sea Level Pressure  
Sea Level Pressure 30.24 in    
Wind  
Wind Speed 19 mph (NW)    
Max Wind Speed 30 mph    
Max Gust Speed 40 mph    
Visibility 10 miles    
Events Snow    
Averages and records for this station are not official NWS values.
T = Trace of Precipitation, MM = Missing Value Source: NWS Daily Summary

Daily Weather History Graph

Daily Weather History Graph

Search for Another Location

Airport or City:

Trip Planner

Search our weather history database for the weather conditions in past years. The results will help you decide how hot, cold, wet, or windy it might be!

Date:

Astronomy

Mar. 05, 2013 Rise Set
Actual Time 6:51 AM CST 6:19 PM CST
Civil Twilight 6:23 AM CST 6:47 PM CST
Nautical Twilight 5:51 AM CST 7:18 PM CST
Astronomical Twilight 5:19 AM CST 7:50 PM CST
Moon 2:06 AM CST (3/5) 11:57 AM CST (3/5)
Length of Visible Light 12h 23m
Length of Day
11h 28m
Last Quarter, 40% of the Moon is Illuminated
Mar 5
Last Quarter
Mar 11
New
Mar 19
First Quarter
Mar 27
Full
Apr 2
Last Quarter

Hourly Weather History & Observations

Time (CST) Temp. Windchill Dew Point Humidity Pressure Visibility Wind Dir Wind Speed Gust Speed Precip Events Conditions
12:55 AM 33.3 °F 25.7 °F 21.7 °F 63% 30.05 in 10.0 mi NNW 9.2 mph - N/A   Overcast
1:55 AM 30.9 °F 19.1 °F 18.0 °F 59% 30.08 in 10.0 mi NW 18.4 mph 24.2 mph N/A   Overcast
2:55 AM 29.5 °F 17.6 °F 19.0 °F 65% 30.07 in 10.0 mi WNW 17.3 mph 21.9 mph N/A   Mostly Cloudy
3:55 AM 27.9 °F 16.3 °F 19.2 °F 70% 30.09 in 10.0 mi WNW 15.0 mph - N/A   Overcast
4:06 AM 28.4 °F 16.6 °F 19.4 °F 69% 30.09 in 10.0 mi WNW 16.1 mph - N/A   Mostly Cloudy
4:17 AM 28.4 °F 13.8 °F 17.6 °F 64% 30.09 in 10.0 mi WNW 25.3 mph 33.4 mph N/A   Overcast
4:55 AM 26.1 °F 13.6 °F 15.6 °F 65% 30.11 in 10.0 mi WNW 16.1 mph 25.3 mph 0.00 in   Scattered Clouds
5:55 AM 25.2 °F 12.4 °F 15.3 °F 66% 30.12 in 10.0 mi WNW 16.1 mph - N/A   Partly Cloudy
6:55 AM 26.6 °F 14.3 °F 16.3 °F 65% 30.12 in 10.0 mi WNW 16.1 mph 23.0 mph N/A   Overcast
7:06 AM 26.6 °F 14.7 °F 15.8 °F 64% 30.12 in 10.0 mi WNW 15.0 mph - N/A   Overcast
7:55 AM 27.9 °F 13.7 °F 18.3 °F 67% 30.13 in 10.0 mi WNW 23.0 mph - N/A   Overcast
8:55 AM 29.3 °F 16.2 °F 19.9 °F 68% 30.14 in 10.0 mi WNW 20.7 mph 33.4 mph N/A   Overcast
9:55 AM 30.0 °F 14.9 °F 19.9 °F 66% 30.15 in 10.0 mi WNW 29.9 mph 35.7 mph N/A   Overcast
10:55 AM 30.0 °F 15.2 °F 20.1 °F 67% 30.18 in 10.0 mi NW 28.8 mph 38.0 mph N/A   Overcast
11:04 AM 30.2 °F 15.9 °F 21.2 °F 69% 30.18 in 10.0 mi NW 26.5 mph 38.0 mph N/A   Overcast
11:13 AM 30.2 °F 16.2 °F 19.4 °F 64% 30.19 in 10.0 mi NW 25.3 mph 38.0 mph N/A   Overcast
11:34 AM 30.2 °F 15.7 °F 19.4 °F 64% 30.19 in 10.0 mi NW 27.6 mph 35.7 mph N/A   Overcast
11:54 AM 30.2 °F 16.5 °F 19.4 °F 64% 30.20 in 10.0 mi NW 24.2 mph 38.0 mph N/A   Overcast
11:55 AM 30.4 °F 16.2 °F 20.3 °F 66% 30.20 in 10.0 mi NW 26.5 mph 38.0 mph 0.00 in   Overcast
12:55 PM 30.6 °F 17.3 °F 19.9 °F 65% 30.22 in 10.0 mi NW 23.0 mph 40.3 mph N/A   Overcast
12:58 PM 30.2 °F 15.7 °F 19.4 °F 64% 30.22 in 10.0 mi NW 27.6 mph 38.0 mph N/A Snow Light Snow
1:43 PM 30.2 °F 16.2 °F 19.4 °F 64% 30.23 in 10.0 mi NW 25.3 mph 34.5 mph N/A   Overcast
1:55 PM 30.2 °F 17.1 °F 19.4 °F 64% 30.24 in 10.0 mi NW 21.9 mph 33.4 mph 0.00 in   Overcast
2:15 PM 30.2 °F 16.8 °F 19.4 °F 64% 30.24 in 10.0 mi NW 23.0 mph 36.8 mph N/A   Overcast
2:33 PM 30.2 °F 16.8 °F 19.4 °F 64% 30.26 in 10.0 mi NW 23.0 mph 31.1 mph N/A   Overcast
2:35 PM 30.2 °F 16.5 °F 19.4 °F 64% 30.26 in 10.0 mi NW 24.2 mph 32.2 mph N/A   Overcast
2:36 PM 30.2 °F 16.5 °F 19.4 °F 64% 30.26 in 10.0 mi NW 24.2 mph 32.2 mph N/A   Overcast
2:52 PM 30.2 °F 16.5 °F 17.6 °F 60% 30.27 in 10.0 mi NW 24.2 mph 35.7 mph N/A   Overcast
2:55 PM 29.8 °F 17.0 °F 18.9 °F 64% 30.27 in 10.0 mi NW 20.7 mph 35.7 mph 0.00 in   Overcast
3:10 PM 30.2 °F 16.8 °F 19.4 °F 64% 30.27 in 10.0 mi NW 23.0 mph 32.2 mph N/A   Overcast
3:15 PM 30.2 °F 16.5 °F 17.6 °F 60% 30.27 in 10.0 mi NW 24.2 mph 33.4 mph N/A   Overcast
3:24 PM 30.2 °F 17.8 °F 17.6 °F 60% 30.27 in 10.0 mi NW 19.6 mph 32.2 mph N/A   Overcast
3:55 PM 29.7 °F 18.6 °F 18.1 °F 62% 30.30 in 10.0 mi NW 15.0 mph 31.1 mph 0.00 in   Overcast
4:55 PM 30.0 °F 18.3 °F 18.1 °F 61% 30.30 in 10.0 mi NNW 17.3 mph 26.5 mph N/A   Overcast
4:56 PM 30.2 °F 18.1 °F 17.6 °F 60% 30.30 in 10.0 mi NNW 18.4 mph 26.5 mph N/A   Overcast
5:25 PM 30.2 °F 17.4 °F 17.6 °F 60% 30.31 in 10.0 mi NW 20.7 mph 32.2 mph N/A   Overcast
5:36 PM 30.2 °F 17.8 °F 17.6 °F 60% 30.32 in 10.0 mi NW 19.6 mph 26.5 mph N/A   Overcast
5:55 PM 29.5 °F 16.8 °F 17.8 °F 62% 30.33 in 10.0 mi NW 19.6 mph 29.9 mph N/A   Overcast
6:00 PM 30.2 °F 17.1 °F 17.6 °F 60% 30.33 in 10.0 mi NNW 21.9 mph 29.9 mph N/A   Overcast
6:55 PM 28.2 °F 16.3 °F 18.0 °F 65% 30.34 in 10.0 mi NNW 16.1 mph 23.0 mph N/A   Overcast
7:55 PM 27.1 °F 14.1 °F 16.9 °F 65% 30.36 in 10.0 mi NNW 18.4 mph 28.8 mph N/A   Overcast
8:55 PM 26.6 °F 14.7 °F 17.8 °F 69% 30.38 in 10.0 mi NW 15.0 mph 18.4 mph N/A   Overcast
9:46 PM 26.6 °F 13.4 °F 17.6 °F 69% 30.39 in 10.0 mi NNW 18.4 mph 24.2 mph N/A   Overcast
9:55 PM 25.7 °F 14.6 °F 17.1 °F 70% 30.40 in 10.0 mi NNW 12.7 mph 23.0 mph N/A   Overcast
9:56 PM 26.6 °F 15.7 °F 17.6 °F 69% 30.40 in 10.0 mi NNW 12.7 mph 23.0 mph N/A   Overcast
10:24 PM 24.8 °F 11.5 °F 17.6 °F 74% 30.40 in 10.0 mi NW 17.3 mph - N/A   Overcast
10:54 PM 24.8 °F 16.1 °F 17.6 °F 74% 30.41 in 10.0 mi NW 8.1 mph - N/A   Overcast
10:55 PM 25.3 °F 16.7 °F 17.6 °F 72% 30.41 in 10.0 mi NW 8.1 mph - N/A   Overcast
11:55 PM 25.0 °F 13.6 °F 16.5 °F 70% 30.43 in 10.0 mi NNW 12.7 mph 18.4 mph N/A   Overcast